Date,TemperatureHighF,TemperatureAvgF,TemperatureLowF,DewpointHighF,DewpointAvgF,DewpointLowF,HumidityHigh,HumidityAvg,HumidityLow,PressureMaxIn,PressureMinIn,WindSpeedMaxMPH,WindSpeedAvgMPH,GustSpeedMaxMPH,PrecipitationSumIn
2012-1-1,48.9,38.2,27.6,42.5,31.7,19.4,89,77,56,24.32,24.19,38,10,38,0.10
2012-1-2,29.0,22.7,18.3,22.0,16.6,11.1,87,77,69,24.43,24.21,25,8,25,0.00
2012-1-3,23.8,19.6,14.9,14.3,11.3,8.1,82,70,52,26.30,24.25,17,4,17,0.00
2012-1-4,38.5,30.5,21.5,28.9,20.7,12.2,80,67,59,24.66,24.10,22,4,22,0.00
2012-1-5,47.9,36.7,25.8,34.2,28.5,21.6,89,73,58,24.39,24.21,19,3,19,0.00
2012-1-6,87.7,57.9,38.4,70.5,47.0,30.7,76,68,56,24.31,24.17,20,3,20,0.00
2012-1-7,44.7,39.0,32.2,35.3,30.8,27.1,83,73,60,24.32,24.17,16,2,16,0.00
2012-1-8,42.0,33.1,23.6,28.6,25.5,20.6,90,74,52,24.51,24.17,10,1,10,0.00
2012-1-9,46.7,36.1,25.3,29.3,25.8,22.2,89,68,45,24.71,24.17,15,1,15,0.00
2012-1-10,82.6,44.0,28.5,66.2,35.4,23.7,85,73,56,24.33,24.21,14,1,14,0.00
2012-1-11,42.6,39.6,33.7,39.7,34.7,28.8,95,83,64,24.32,24.21,15,2,15,0.49
2012-1-12,38.5,29.1,17.6,36.9,26.0,11.3,98,88,76,24.49,24.18,24,5,24,0.02
2012-1-13,17.6,17.6,17.6,11.6,11.6,11.6,77,77,77,24.24,24.24,7,7,12,0.02
2012-1-14,21.0,17.4,12.3,14.0,11.7,8.4,86,78,72,24.61,24.19,7,4,12,0.02
2012-1-15,28.3,18.6,5.2,21.6,11.6,1.7,87,75,57,26.60,24.16,24,3,24,0.00
2012-1-16,51.1,40.2,27.5,49.2,34.6,21.2,94,80,68,24.65,24.14,24,8,24,0.00
2012-1-17,53.6,42.1,25.2,51.6,39.2,19.3,94,89,78,24.29,24.20,33,9,33,0.74
2012-1-18,26.2,23.6,21.0,20.1,16.6,13.6,80,74,66,24.64,24.18,17,3,18,0.00
2012-1-19,28.2,21.7,7.0,25.6,17.4,3.5,98,84,74,24.31,24.31,17,4,20,0.01
2012-1-20,18.1,12.1,3.8,15.1,7.8,0.3,96,83,73,25.38,24.05,21,3,21,0.00
2012-1-21,21.9,18.1,15.9,18.1,14.4,12.3,88,85,80,24.58,24.24,18,4,18,0.00
2012-1-22,47.9,32.1,21.9,45.9,29.9,18.1,95,92,85,24.35,24.17,22,7,22,0.26
2012-1-23,51.3,41.7,33.1,49.0,37.9,27.3,96,86,78,24.32,24.19,29,9,29,0.25
2012-1-24,33.2,30.9,27.2,27.8,25.4,22.9,84,80,76,24.34,24.23,20,4,20,0.00
2012-1-25,32.7,28.5,22.6,30.3,25.3,20.1,98,88,82,24.34,24.19,12,1,12,0.09
2012-1-26,38.1,34.8,32.4,36.5,33.0,29.9,94,93,90,24.37,24.21,13,2,13,0.57
2012-1-27,38.7,34.1,31.9,33.6,30.4,28.0,94,87,69,24.51,24.16,19,4,19,0.02
2012-1-28,34.8,32.0,29.0,30.3,24.4,17.7,92,74,50,24.33,21.96,28,6,28,0.03
2012-1-29,35.6,30.2,22.8,26.9,22.0,18.8,85,72,59,24.36,24.02,28,5,28,0.00
2012-1-30,82.9,41.0,20.6,68.5,31.2,17.5,88,69,58,24.45,24.11,24,5,24,0.00
2012-1-31,96.5,71.4,43.4,82.3,60.9,31.5,96,70,55,24.31,24.11,26,6,26,0.00
2012-2-1,84.5,61.4,37.1,83.6,57.3,34.4,98,87,69,24.32,24.13,21,3,21,0.06
2012-2-2,46.7,37.0,30.7,37.5,32.8,28.3,92,85,69,24.23,24.23,10,1,10,0.01
2012-2-3,83.6,39.7,28.3,70.2,34.0,26.3,93,81,62,24.37,24.01,12,1,12,0.01
2012-2-4,39.7,35.7,33.3,36.3,33.3,30.9,92,91,86,24.61,24.14,16,3,16,0.36
2012-2-5,44.6,35.7,30.1,33.6,30.5,26.6,93,82,58,25.87,24.21,10,1,10,0.00
2012-2-6,46.9,35.9,30.1,33.9,29.7,26.7,92,79,55,24.36,24.21,15,2,15,0.00
2012-2-7,31.5,29.9,29.8,28.9,26.6,26.4,90,87,87,0.00,40.00,11,4,16,0.00
2012-2-8,34.0,31.0,27.7,26.5,24.6,21.0,89,77,63,0.00,40.00,14,4,16,0.01
2012-2-9,32.3,29.7,25.2,22.9,21.0,18.6,81,70,66,24.52,24.17,15,4,15,0.00
2012-2-10,32.0,29.5,28.1,29.4,23.8,19.9,92,79,71,24.63,23.95,16,4,16,0.00
2012-2-11,31.3,31.3,31.3,29.2,29.2,29.2,92,92,92,24.37,24.18,2,2,2,0.00
2012-2-12,31.3,27.2,14.3,29.2,21.1,6.6,92,78,64,24.37,24.17,25,4,25,0.00
2012-2-13,33.4,29.4,26.4,26.0,19.8,15.1,92,68,49,24.64,24.12,19,2,19,0.00
2012-2-14,28.1,28.1,27.8,25.5,25.5,25.0,90,90,89,24.38,24.18,11,3,11,0.00
2012-2-15,43.6,35.4,28.1,37.3,31.6,25.5,90,86,76,24.27,24.27,18,4,18,0.07
2012-2-16,42.6,39.8,38.9,39.3,36.1,33.8,89,86,79,24.32,24.19,17,3,17,0.00
2012-2-17,47.4,40.3,30.3,35.9,30.3,27.0,89,68,46,24.32,24.19,14,2,14,0.00
2012-2-18,39.8,37.1,32.1,31.3,26.9,23.1,79,66,60,24.33,24.19,17,3,17,0.00
2012-2-19,33.7,31.0,24.9,23.9,22.6,21.0,85,71,64,24.31,24.31,17,4,20,0.00
2012-2-20,40.3,32.8,25.0,27.4,24.2,21.7,89,70,58,24.34,24.21,16,3,16,0.00
2012-2-21,35.0,35.0,35.0,25.9,25.9,25.9,69,69,69,24.32,24.17,2,2,2,0.00
2012-2-22,55.0,44.2,35.0,39.8,31.9,25.9,80,62,48,24.26,24.18,26,4,26,0.00
2012-2-23,49.2,44.4,33.4,39.4,37.3,31.3,92,77,61,24.32,24.11,15,4,15,0.10
2012-2-24,41.5,41.5,41.5,38.5,38.5,38.5,89,89,89,24.29,21.83,7,7,7,0.00
2012-2-25,41.5,32.1,24.4,38.5,24.5,15.1,89,74,62,24.32,21.83,25,6,25,0.00
2012-2-26,47.9,36.0,26.4,27.7,21.9,16.6,72,57,43,24.33,24.15,21,6,21,0.00
2012-2-27,46.5,41.0,35.2,29.0,25.4,23.9,64,54,43,24.27,24.10,26,5,26,0.00
2012-2-28,52.0,42.0,30.1,33.6,28.1,19.4,77,58,41,24.32,24.17,15,2,15,0.00
2012-2-29,47.9,8.9,0.0,33.4,6.2,0.0,57,11,57,24.22,24.21,0,0,0,0.00
2012-3-1,37.0,36.9,0.0,30.8,30.7,0.0,78,78,78,0.00,40.00,0,0,0,0.00
2012-3-2,43.7,43.5,37.0,38.0,37.8,30.8,80,80,78,0.00,40.00,9,9,9,0.00
2012-3-3,34.0,31.1,28.4,25.6,24.4,22.6,88,76,68,29.83,29.74,25,7,25,0.00
2012-3-4,32.6,29.4,27.7,26.1,23.3,21.2,92,78,64,29.88,29.79,18,3,18,0.00
2012-3-5,35.2,29.9,26.0,25.0,21.1,17.5,85,70,55,30.40,29.86,18,4,18,0.00
2012-3-6,61.7,45.7,28.6,39.2,29.9,22.1,78,56,39,30.39,30.08,28,9,28,0.00
2012-3-7,149.7,74.9,47.6,99.9,54.5,30.0,65,52,38,30.18,29.92,33,10,36,0.00
2012-3-8,60.6,48.1,34.6,53.1,41.7,27.0,93,79,65,30.23,29.79,28,7,28,0.60
2012-3-9,40.7,35.2,27.5,27.3,21.9,17.1,76,59,42,30.51,30.22,25,6,25,0.00
2012-3-10,51.6,37.1,23.4,30.9,23.2,17.0,77,58,42,30.52,30.30,19,3,19,0.00
2012-3-11,65.5,52.1,38.4,41.9,33.9,24.9,58,50,40,30.32,30.12,18,2,18,0.00
2012-3-12,65.0,58.4,51.4,58.5,51.6,37.3,90,79,48,30.12,29.79,32,8,32,0.13
2012-3-13,72.3,62.3,51.3,58.6,52.3,46.0,90,71,48,30.07,29.86,22,3,22,0.00
2012-3-14,114.3,77.8,48.8,98.4,66.7,44.5,85,70,54,30.10,29.92,19,3,19,0.00
2012-3-15,126.2,88.8,60.5,99.9,78.6,54.4,86,75,60,30.02,29.87,21,4,21,0.00
2012-3-16,107.2,74.5,55.3,90.4,66.0,52.9,92,77,56,30.09,29.95,17,3,17,0.00
2012-3-17,103.9,81.8,49.2,92.3,73.2,47.0,94,76,67,30.11,29.95,18,2,18,0.00
2012-3-18,111.1,84.4,58.6,92.9,74.8,54.6,88,75,50,30.07,29.91,17,3,17,0.00
2012-3-19,140.5,98.1,56.8,99.9,81.8,53.6,90,71,52,30.01,29.86,21,2,21,0.00
2012-3-20,149.8,78.5,92.5,99.9,85.9,0.0,84,54,1,29.95,29.86,17,2,17,0.00
2012-3-21,149.9,67.0,61.2,99.9,75.6,0.0,81,49,1,30.00,29.89,13,2,14,0.00
2012-3-22,149.9,90.1,59.2,99.9,86.8,54.5,86,66,27,30.00,29.87,15,2,15,0.00
2012-3-23,111.5,67.6,54.3,99.9,64.5,52.3,93,90,82,29.90,29.70,20,2,20,1.98
2012-3-24,93.9,57.3,50.7,85.8,51.8,49.0,94,83,60,29.82,29.70,17,2,17,0.10
2012-3-25,67.8,59.0,51.8,57.6,53.8,49.2,94,84,67,29.99,29.81,16,3,16,0.00
2012-3-26,56.4,45.8,36.5,51.3,35.0,26.2,83,66,52,30.31,29.99,19,5,19,0.00
2012-3-27,64.3,47.3,32.0,43.0,31.7,22.5,72,56,40,30.31,29.90,19,5,19,0.00
2012-3-28,71.6,63.8,49.5,56.7,46.6,38.5,77,56,35,29.95,29.77,29,6,31,0.00
2012-3-29,59.2,49.6,38.0,42.5,38.7,34.5,92,67,51,30.07,29.94,14,2,14,0.00
2012-3-30,74.6,55.0,41.2,61.2,48.2,38.0,90,79,58,29.94,29.58,25,5,25,0.25
2012-3-31,47.2,43.3,39.7,43.2,39.3,36.6,92,86,78,29.93,29.77,12,2,12,0.00
2012-4-1,75.1,57.0,39.8,63.8,50.3,36.8,90,79,62,29.88,29.58,20,4,20,0.04
2012-4-2,65.4,53.5,43.3,52.8,42.5,36.6,82,68,44,29.92,29.67,19,5,19,0.00
2012-4-5,53.4,47.0,38.6,36.6,33.4,29.7,70,59,51,30.04,29.89,22,5,22,0.00
2012-4-6,58.2,44.2,31.9,35.7,31.4,27.3,84,63,40,30.22,30.04,16,3,16,0.00
2012-4-7,69.9,49.2,32.6,32.3,25.0,12.0,81,45,12,30.28,30.09,15,2,15,0.03
2012-4-8,61.2,55.4,49.7,43.3,30.2,16.7,72,41,18,30.17,30.04,30,5,30,0.00
2012-4-9,63.1,53.1,38.8,35.1,26.8,16.9,74,40,18,30.04,29.85,31,4,34,0.00
2012-4-10,51.6,42.0,34.6,26.2,21.9,18.0,62,45,29,30.06,29.88,24,6,25,0.00
2012-4-11,52.1,40.9,30.8,29.5,25.0,21.3,72,55,33,30.22,30.05,21,3,21,0.00
2012-4-12,59.4,45.5,30.1,33.7,28.1,22.3,88,55,28,30.26,30.11,14,1,14,0.00
2012-4-13,64.0,51.4,34.4,34.6,30.9,25.0,92,51,23,30.20,30.04,17,2,17,0.00
2012-4-14,60.3,56.2,51.1,58.6,47.7,32.2,94,76,44,30.06,29.86,20,4,20,0.57
2012-4-15,76.3,66.4,57.1,59.3,56.4,54.7,94,72,49,29.89,29.73,38,7,38,0.00
2012-4-16,69.0,62.0,52.3,60.6,51.5,42.5,91,69,54,30.16,29.66,31,7,31,0.29
2012-4-17,62.7,53.1,40.5,43.7,40.1,35.7,93,64,38,30.32,30.16,11,1,14,0.00
2012-4-18,55.1,44.4,38.9,43.0,38.8,36.1,90,81,55,30.24,29.99,9,0,9,0.00
2012-4-19,75.0,62.6,49.1,47.7,42.7,38.6,71,50,30,30.00,29.81,18,2,18,0.00
2012-4-20,71.8,59.4,43.3,53.6,46.7,40.6,91,64,47,29.81,29.66,24,5,24,0.04
2012-4-21,51.1,44.3,40.0,42.6,38.3,36.2,94,80,59,29.94,29.80,16,4,16,0.00
2012-4-22,49.2,44.2,38.3,37.7,32.1,24.4,93,65,40,29.94,29.88,22,4,22,0.00
2012-4-23,56.9,46.2,35.9,26.1,19.3,9.9,61,37,19,29.91,29.72,30,8,33,0.00
2012-4-24,62.9,50.6,36.8,33.5,21.9,16.5,52,34,19,29.73,29.65,25,4,25,0.00
2012-4-25,68.2,55.9,45.2,56.1,46.1,33.4,93,71,49,29.75,29.59,18,3,18,0.19
2012-4-26,65.5,57.3,41.1,59.1,46.9,16.3,96,71,29,30.04,29.50,28,6,28,0.01
2012-4-27,56.7,45.1,32.3,29.9,26.1,19.7,81,51,24,30.23,30.03,15,2,15,0.00
2012-4-28,49.7,45.8,41.3,38.4,34.2,26.9,86,65,46,30.15,29.96,28,4,28,0.18
2012-4-29,62.2,52.8,42.8,46.5,41.7,37.2,86,67,50,30.20,30.05,18,3,18,0.00
2012-4-30,78.8,64.4,52.9,63.1,55.0,38.8,95,73,50,30.06,29.79,23,3,23,0.62
2012-5-1,66.8,61.8,56.6,61.6,58.6,54.8,96,89,73,30.02,29.80,20,2,20,0.74
2012-5-2,84.5,73.5,63.0,66.9,63.7,60.1,94,73,49,29.92,29.82,22,3,22,0.00
2012-5-3,85.5,74.9,64.9,66.7,63.3,60.0,90,69,46,29.98,29.84,14,3,22,0.00
2012-5-4,80.8,71.1,64.1,68.2,63.5,59.1,93,78,56,29.93,29.81,17,2,18,0.11
2012-5-5,73.3,66.1,61.6,64.3,62.0,58.2,95,87,72,29.97,29.80,12,2,12,0.01
2012-5-6,80.9,67.8,53.6,63.4,57.3,49.7,91,71,51,30.01,29.81,11,2,12,0.00
2012-5-7,80.5,66.9,53.5,66.8,61.6,50.2,95,84,58,29.85,29.69,30,2,30,1.58
2012-5-8,71.6,62.3,54.2,63.9,52.0,43.0,95,72,44,29.84,29.74,24,4,24,0.08
2012-5-9,64.1,57.7,50.6,48.1,45.1,40.1,83,64,46,29.86,29.77,21,3,26,0.00
2012-5-10,66.8,55.4,42.6,43.1,38.1,31.3,82,55,28,29.99,29.84,22,3,22,0.00
2012-5-11,73.9,58.6,40.9,47.0,39.3,32.3,93,55,24,30.14,29.99,8,1,10,0.00
2012-5-12,75.2,63.7,51.6,49.9,45.1,41.1,79,54,31,30.20,30.10,13,1,13,0.00
2012-5-13,73.7,63.7,51.5,55.0,51.7,48.9,93,67,43,30.11,29.99,15,2,15,0.00
2012-5-14,76.7,63.6,51.8,57.7,52.0,45.7,96,70,34,30.04,29.92,12,1,12,0.00
2012-5-15,81.1,68.4,50.3,52.1,41.9,32.7,84,44,19,29.95,29.84,14,1,14,0.00
2012-5-16,73.0,67.3,62.8,54.3,44.8,37.5,62,45,29,29.94,29.82,18,3,18,0.00
2012-5-20,80.8,75.9,73.7,56.2,55.0,52.1,54,49,37,29.94,29.52,7,1,7,0.00
2012-5-21,73.8,67.3,56.5,61.8,57.1,49.4,85,70,55,29.97,29.91,18,3,18,0.00
2012-5-22,75.0,62.9,54.3,54.9,49.8,45.8,82,65,38,29.97,29.82,13,2,13,0.00
2012-5-23,79.8,67.0,50.3,57.6,51.7,45.6,90,60,40,29.87,29.76,16,2,16,0.00
2012-5-24,84.8,73.9,60.9,63.0,56.9,48.4,89,59,29,29.85,29.68,25,4,25,0.00
2012-5-25,88.3,78.4,71.9,70.3,63.7,54.6,90,61,49,29.99,29.76,18,3,18,0.01
2012-5-26,91.9,80.0,68.6,70.5,65.9,61.3,92,65,39,30.07,28.59,14,1,14,0.00
2012-5-27,92.9,81.7,68.3,68.1,65.1,61.0,88,60,36,29.99,24.75,17,1,17,0.00
2012-5-28,91.8,82.1,71.7,68.5,64.7,60.7,81,58,36,29.87,27.97,19,2,19,0.00
2012-5-29,80.9,73.6,66.1,68.4,63.7,56.8,94,73,45,29.82,29.47,21,2,21,1.05
2012-5-30,74.3,67.4,56.4,57.6,49.4,40.7,93,56,31,29.84,29.76,18,2,18,0.00
2012-5-31,74.9,62.0,51.0,58.3,50.3,45.0,89,67,40,29.89,29.66,18,2,18,0.17
2012-6-2,65.9,61.2,57.8,49.9,49.2,47.3,74,65,51,29.80,29.76,12,1,12,0.00
2012-6-3,77.5,63.7,51.9,56.3,50.8,44.6,91,66,32,29.83,29.76,19,2,19,0.00
2012-6-4,78.4,69.5,60.9,54.2,49.7,43.3,72,51,30,29.80,29.71,16,3,18,0.00
2012-6-5,66.3,60.6,52.7,53.4,49.4,44.9,89,67,51,29.93,29.80,14,2,22,0.00
2012-6-6,74.3,62.5,49.7,50.3,46.4,41.5,83,58,33,30.01,29.93,17,2,17,0.00
2012-6-7,80.7,67.7,50.6,54.3,48.0,41.4,89,54,26,30.05,29.96,15,1,15,0.00
2012-6-8,84.7,71.0,52.6,53.3,47.6,40.3,88,49,23,30.04,29.84,14,1,14,0.00
2012-6-9,85.9,73.8,58.5,55.7,50.9,46.0,75,48,27,29.97,29.84,17,2,17,0.00
2012-6-10,87.4,74.2,60.7,62.9,57.2,52.9,83,58,35,29.97,24.45,18,2,18,0.00
2012-6-11,78.6,75.5,72.9,69.2,68.4,67.5,84,79,73,29.82,29.41,7,0,7,0.02
2012-6-12,80.5,72.8,62.3,67.8,55.5,41.8,93,59,26,30.03,29.80,20,4,20,0.00
2012-6-13,76.1,65.7,55.3,53.9,46.4,38.5,75,53,26,30.11,30.02,12,2,15,0.00
2012-6-14,83.7,69.3,52.5,49.7,44.4,38.1,71,44,22,30.11,29.99,12,1,12,0.00
2012-6-15,88.8,74.0,55.3,58.4,52.0,46.3,84,50,25,30.08,20.59,12,1,12,0.00
2012-6-16,90.5,78.6,66.6,69.7,64.4,57.8,85,64,39,30.90,20.72,17,2,17,0.00
2012-6-17,85.7,78.1,72.0,68.5,65.0,61.5,83,65,46,29.90,29.76,21,3,21,0.00
2012-6-18,90.5,80.1,70.4,68.0,64.9,60.1,87,62,37,29.82,26.20,33,3,33,0.00
2012-6-19,91.0,81.4,71.0,65.5,63.0,60.3,76,55,37,30.96,20.73,22,3,22,0.00
2012-6-20,91.4,81.7,70.8,64.9,62.1,57.6,77,54,33,30.06,20.71,20,3,20,0.00
2012-6-21,90.5,78.9,69.1,68.0,63.4,60.2,86,61,37,30.80,20.59,26,3,26,0.00
2012-6-22,84.0,73.7,61.0,65.1,57.7,46.9,94,62,30,30.80,20.67,17,2,17,0.01
2012-6-23,85.7,73.7,57.3,57.6,52.9,48.0,87,52,29,29.97,20.66,12,0,12,0.00
2012-6-24,90.6,79.1,64.0,59.5,56.7,51.2,82,49,29,29.95,20.61,18,1,18,0.00
2012-6-25,81.5,75.0,65.2,62.5,53.0,38.4,73,49,23,29.94,27.05,15,4,19,0.00
2012-6-26,78.9,67.4,52.1,51.0,46.2,42.0,84,49,29,30.01,29.89,15,2,15,0.00
2012-6-27,88.1,73.4,55.5,53.6,49.1,43.7,80,47,24,29.99,29.81,18,2,18,0.00
2012-6-28,105.3,87.3,72.0,70.8,61.4,52.6,55,43,26,29.83,29.67,24,3,24,0.00
2012-6-29,97.3,80.5,66.2,75.4,68.5,59.3,93,69,43,29.90,29.66,50,2,50,0.53
2012-6-30,89.0,77.0,66.9,72.4,67.5,63.4,94,75,45,29.85,24.26,21,1,21,0.20
2012-7-1,93.0,76.4,68.5,70.4,67.7,64.2,95,77,44,29.99,20.54,24,2,24,0.08
2012-7-2,92.7,79.0,65.0,71.3,66.3,62.9,93,68,41,29.98,22.52,13,1,13,0.00
2012-7-3,93.6,83.0,71.5,71.1,67.2,64.6,84,61,40,29.89,22.62,13,1,13,0.00
2012-7-4,90.1,78.8,75.1,72.5,69.6,68.0,81,74,55,29.85,20.65,9,1,9,0.00
2012-7-6,87.3,84.8,82.9,74.6,74.2,73.6,75,71,64,29.87,29.82,0,0,0,0.00
2012-7-7,99.2,89.0,77.4,75.3,71.2,65.1,85,59,36,29.90,20.65,17,2,17,0.00
2012-7-8,85.8,79.4,72.5,72.9,66.5,60.9,88,65,53,29.94,20.76,18,2,18,0.00
2012-7-9,87.8,77.0,64.4,63.8,58.0,52.1,84,55,30,31.21,29.85,11,1,12,0.00
2012-7-10,88.2,78.4,66.7,63.2,58.5,52.2,75,52,30,29.99,29.84,18,2,18,0.00
2012-7-11,87.8,77.4,64.4,57.3,52.0,47.9,60,43,29,30.05,20.83,17,2,17,0.00
2012-7-12,91.2,79.0,66.7,63.2,56.3,50.1,66,48,27,30.03,20.83,19,2,19,0.00
2012-7-13,87.7,77.8,67.1,67.4,64.7,60.3,90,66,44,30.04,27.73,15,2,15,0.00
2012-7-14,87.8,77.0,69.1,70.3,67.6,64.8,92,74,51,30.04,22.80,16,2,16,0.06
2012-7-15,91.5,80.1,70.9,71.9,68.3,63.6,93,70,41,31.91,20.63,16,2,16,0.00
2012-7-16,94.3,83.6,71.5,71.7,67.1,61.4,86,60,35,29.94,16.66,14,2,14,0.00
2012-7-17,81.6,78.1,76.2,70.5,69.3,68.4,80,75,65,20.92,16.66,5,0,5,0.00
2012-7-29,84.3,80.1,70.2,61.8,59.5,55.1,74,51,39,29.99,24.57,11,1,11,0.00
2012-7-30,88.2,77.1,67.0,67.0,63.3,61.0,85,64,42,29.95,26.15,12,1,12,0.00
2012-7-31,88.2,77.2,68.3,69.3,64.4,60.4,83,66,41,29.86,20.90,17,2,17,0.02
2012-8-1,84.6,74.8,64.2,66.8,61.1,50.3,92,65,33,29.86,21.24,17,2,17,0.00
2012-8-2,91.8,76.6,59.0,65.4,58.6,51.9,91,58,28,29.86,20.70,10,1,10,0.00
2012-8-3,91.5,80.8,68.0,69.5,66.0,61.4,87,62,38,29.85,29.43,18,2,18,0.00
2012-8-4,88.6,77.2,72.2,77.8,72.2,67.7,95,85,65,29.89,26.24,22,2,22,0.83
2012-8-5,82.7,75.9,69.6,73.1,67.2,60.1,93,76,49,30.07,20.86,23,2,23,0.05
2012-8-6,70.0,63.3,57.4,61.7,57.4,54.9,92,81,74,30.10,30.06,4,0,4,0.00
2012-8-23,68.4,67.8,67.7,60.9,59.6,58.7,77,75,73,26.96,26.96,0,0,0,1.38
2012-8-24,88.3,74.5,60.1,62.4,58.1,51.9,88,61,31,30.04,26.96,15,1,15,0.00
2012-8-25,91.2,78.4,66.3,64.8,60.0,53.4,78,56,29,30.04,29.96,11,1,12,0.00
2012-8-26,88.0,77.7,65.8,69.3,63.7,57.8,80,63,41,29.99,20.62,15,1,15,0.00
2012-8-27,82.6,75.6,69.6,70.9,67.3,61.0,94,76,61,29.96,29.77,14,2,14,0.47
2012-8-28,81.8,70.7,60.1,63.4,59.5,56.5,89,70,46,29.77,26.51,16,2,16,0.00
2012-8-29,81.3,69.9,58.1,61.5,58.5,56.3,95,70,43,29.70,25.75,10,1,10,0.00
2012-8-30,86.5,71.8,58.4,60.9,56.7,52.8,88,63,32,29.86,23.07,14,1,14,0.00
2012-8-31,86.0,75.9,63.3,72.3,67.3,55.7,88,75,61,30.06,28.24,18,1,18,0.00
2012-9-1,79.3,74.8,71.9,74.7,71.3,69.0,95,89,81,29.51,25.77,7,1,11,0.19
2012-9-2,76.7,72.8,70.7,73.9,70.6,68.6,95,93,83,26.32,23.92,26,1,26,0.61
2012-9-3,76.8,72.7,69.6,72.3,70.1,67.7,96,92,85,28.90,23.52,13,1,13,0.02
2012-9-4,85.7,74.3,70.0,72.5,70.2,67.6,96,88,60,26.35,24.66,15,1,15,0.10
2012-9-9,72.2,67.0,59.4,54.0,52.7,50.5,80,61,48,29.92,29.75,17,2,17,0.00
2012-9-10,75.5,62.6,49.5,54.8,50.8,46.6,95,69,37,30.63,29.51,10,0,10,0.00
2012-9-11,78.2,64.8,51.2,54.8,51.8,49.0,92,66,37,30.63,30.09,16,2,16,0.00
2012-9-12,81.9,69.5,55.6,60.1,55.5,50.5,86,63,41,30.42,26.06,15,1,15,0.00
2012-9-13,80.9,72.3,64.4,61.7,58.6,53.4,84,64,41,30.72,24.29,13,1,13,0.00
2012-9-14,67.8,60.7,52.8,59.5,54.1,45.4,94,80,49,30.57,24.31,15,2,15,0.05
2012-9-15,73.5,59.5,47.2,52.9,49.0,45.6,95,72,39,30.57,23.06,7,0,7,0.00
2012-9-16,76.2,63.0,49.3,54.5,49.5,44.2,93,66,34,26.26,23.06,13,1,13,0.01
2012-9-17,73.3,63.6,53.7,64.0,57.6,50.2,95,82,62,31.36,26.26,10,1,10,0.13
2012-9-18,65.1,59.6,46.3,63.6,52.2,38.0,95,78,52,31.76,17.30,22,4,22,0.20
2012-9-19,46.0,43.6,41.7,41.7,39.9,39.2,92,87,79,17.30,17.30,0,0,0,0.00
2012-10-13,66.7,64.8,56.3,62.2,57.3,43.5,90,77,62,29.67,18.65,20,4,20,0.02
2012-10-14,73.2,65.7,53.9,62.1,58.3,48.4,90,78,54,28.30,25.47,39,8,39,0.30
2012-10-15,55.7,49.9,40.6,49.0,43.7,38.4,93,80,57,29.37,25.02,18,3,18,0.02
2012-10-16,61.1,46.2,34.4,44.3,39.0,32.9,95,78,51,29.09,25.02,19,2,19,0.01
2012-10-17,72.8,62.3,54.3,55.3,49.2,44.3,85,64,42,30.03,28.86,29,5,29,0.09
2012-10-20,52.7,47.3,40.0,42.7,40.5,37.8,93,78,65,29.21,29.21,15,2,15,0.02
2012-10-21,66.8,50.9,36.0,49.5,43.5,34.4,96,78,51,31.91,26.02,10,1,15,0.01
2012-10-22,75.2,63.6,52.4,59.1,52.6,46.8,81,68,50,30.91,24.05,18,2,18,0.02
2012-10-23,70.8,64.4,57.9,59.7,56.2,52.5,93,75,64,25.44,23.77,19,2,19,0.65
2012-10-24,78.2,68.4,60.1,60.9,54.6,51.5,74,62,41,24.81,24.00,19,3,19,0.00
2012-10-25,75.6,67.6,58.4,57.8,54.5,50.9,76,63,51,24.19,24.19,17,5,24,0.00
2012-10-26,67.7,47.3,43.9,55.2,42.2,36.7,92,83,64,26.57,24.01,21,4,21,0.21
2012-10-27,52.4,44.0,35.8,37.4,33.7,30.8,84,68,48,26.30,23.98,24,5,24,0.00
2012-10-28,48.4,41.9,35.4,34.2,32.3,29.5,84,69,54,31.22,21.50,25,5,25,0.00
2012-10-29,46.0,40.6,35.0,30.1,26.0,17.3,76,57,33,30.53,26.27,33,8,33,0.00
2012-11-1,48.0,45.6,43.5,31.9,30.9,29.8,63,56,49,23.50,23.50,6,0,6,0.00
2012-11-2,48.2,42.3,35.7,33.9,31.6,28.7,80,66,53,23.50,19.23,18,2,18,0.00
2012-11-3,41.4,37.1,30.7,35.4,32.4,28.5,93,83,76,28.84,19.23,7,0,7,0.03
2012-11-4,41.9,35.5,28.8,32.9,29.5,26.7,93,80,62,30.27,24.39,14,1,14,0.00
2012-11-5,44.4,33.9,25.1,30.3,27.2,22.9,93,78,54,30.27,23.36,11,0,11,0.00
2012-11-6,49.2,38.6,26.1,34.4,29.5,23.7,92,71,49,30.27,27.53,11,1,11,0.00
2012-11-7,48.4,41.4,32.5,36.9,33.1,29.6,89,74,50,30.68,24.33,13,1,13,0.01
2012-11-8,49.4,37.3,27.5,36.5,31.6,25.5,96,81,59,29.27,24.21,11,0,11,0.01
2012-11-9,60.6,46.5,30.2,41.8,36.6,28.2,94,71,48,31.57,25.75,19,4,19,0.01
2012-11-10,68.9,59.1,51.0,49.9,44.3,40.0,67,58,46,27.72,24.90,16,5,23,0.00
2012-11-11,66.4,60.3,53.8,49.1,43.9,39.3,64,55,44,31.57,23.77,31,9,31,0.00
2012-11-12,61.2,41.4,32.1,53.4,35.7,24.6,93,80,59,31.57,24.39,26,6,26,0.86
2012-11-13,37.3,31.7,26.2,25.7,23.4,17.0,88,72,49,31.73,24.51,14,1,14,0.00
2012-11-14,41.2,32.2,23.9,28.7,25.6,21.4,92,77,57,31.13,25.52,15,1,15,0.00
2012-11-15,42.6,33.0,24.6,31.5,27.5,22.4,93,81,63,32.03,27.16,7,0,7,0.01
2012-11-16,49.9,36.0,24.4,34.3,28.6,22.1,93,76,48,29.77,24.14,9,0,9,0.00
2012-11-17,55.4,40.3,27.4,37.2,31.1,25.1,93,72,42,28.25,24.73,11,0,11,0.01
2012-11-18,59.7,44.1,30.6,35.4,30.1,26.9,87,61,29,28.39,23.94,10,0,10,0.00
2012-11-19,60.1,46.9,34.3,37.0,31.5,26.4,78,57,32,29.40,23.80,9,0,9,0.00
2012-11-20,57.5,50.0,43.3,41.7,38.6,34.2,82,65,46,26.00,24.00,7,0,7,0.00
2012-11-21,60.1,48.3,38.5,45.4,40.9,35.9,93,77,55,25.84,23.99,12,0,12,0.00
2012-11-22,61.9,49.8,35.3,44.4,40.2,33.2,93,72,49,30.35,24.17,23,4,23,0.01
2012-11-23,55.6,37.6,28.3,50.0,30.4,19.3,92,75,61,29.22,25.20,31,8,31,0.14
2012-11-24,30.6,28.2,25.3,22.2,20.8,19.3,80,73,67,28.49,19.53,17,3,17,0.00
2012-11-25,44.9,35.8,26.6,31.2,26.1,21.0,80,68,52,30.49,19.53,18,3,18,0.00
2012-11-26,46.4,37.5,28.8,32.3,28.7,25.2,89,72,44,30.49,24.28,10,0,12,0.00
2012-11-27,36.9,31.5,26.9,28.7,24.8,21.7,92,77,57,28.74,24.18,12,1,12,0.00
2012-11-28,41.9,31.7,25.1,26.9,23.7,21.0,85,73,53,29.44,24.16,12,1,12,0.00
2012-11-29,47.4,37.4,27.2,31.5,27.5,22.2,82,68,51,26.18,24.30,19,2,19,0.00
2012-11-30,56.2,45.5,37.7,37.8,33.3,29.1,82,63,47,26.02,23.88,18,2,18,0.00
2012-12-1,62.1,53.1,43.3,50.2,44.1,36.9,82,72,62,24.78,24.23,24,4,24,0.00
2012-12-2,60.9,56.9,53.2,56.2,52.4,46.3,95,85,66,26.04,24.10,21,4,22,0.09
2012-12-3,67.7,61.3,57.3,60.6,57.3,53.3,98,87,74,30.55,24.37,23,4,23,0.01
2012-12-4,61.8,52.2,42.4,54.8,47.6,38.7,94,84,73,24.88,23.82,20,3,20,0.26
2012-12-5,43.6,36.8,29.6,38.9,30.5,25.3,88,78,63,28.18,24.60,12,1,12,0.01
2012-12-6,45.8,37.5,27.8,39.8,31.4,23.9,85,79,69,29.81,24.35,12,2,12,0.00
2012-12-7,47.6,45.5,43.3,46.2,43.4,39.5,96,92,84,27.05,24.21,7,1,7,0.39
2012-12-8,47.6,45.3,39.0,46.5,43.3,37.0,96,93,85,29.43,23.86,14,2,14,0.05
2012-12-9,54.7,45.0,38.8,53.6,43.4,36.7,96,94,90,26.12,23.89,19,3,19,0.52
2012-12-10,49.1,34.8,30.1,47.2,32.2,26.7,94,90,86,25.86,23.86,21,4,21,0.00
2012-12-11,33.0,30.3,27.6,29.3,25.7,22.6,94,83,71,27.05,26.65,12,3,14,0.00
2012-12-12,42.0,32.0,24.7,28.5,24.7,21.6,92,75,53,28.61,24.84,13,1,13,0.01
2012-12-13,44.9,34.9,25.0,29.2,25.8,22.0,92,71,45,27.33,24.90,16,2,16,0.00
2012-12-14,50.0,40.5,32.9,33.0,29.0,24.9,76,64,49,26.14,26.14,10,1,12,0.00
2012-12-15,52.4,45.7,41.5,48.9,38.0,28.6,92,75,56,26.14,24.03,23,5,23,0.12
2012-12-16,55.9,50.9,43.4,50.2,47.0,40.4,92,87,74,31.65,24.21,19,3,19,0.01
2012-12-17,43.4,41.1,38.1,40.6,38.9,36.0,95,92,88,31.65,24.24,11,1,11,0.09
2012-12-18,43.1,38.0,36.2,37.0,34.6,32.3,93,88,79,25.98,24.24,22,4,22,0.03
2012-12-19,43.9,40.5,36.6,37.8,35.9,33.6,90,84,75,25.06,23.96,23,3,23,0.01
2012-12-20,52.1,43.3,31.2,48.3,39.1,29.1,93,85,69,24.88,23.87,35,10,35,0.60
2012-12-21,31.4,28.5,26.2,30.9,25.2,22.0,100,87,82,27.34,24.44,35,11,35,0.01
2012-12-22,30.1,25.7,21.5,22.2,20.7,18.2,89,81,68,29.80,25.28,17,3,17,0.00
2012-12-23,37.3,31.0,25.9,27.6,24.0,20.4,88,75,66,29.80,24.25,14,1,14,0.00
2012-12-24,38.0,32.3,28.4,35.7,29.4,25.6,94,89,84,28.31,24.45,11,2,15,0.00
2012-12-25,32.6,31.0,29.6,28.6,27.1,24.5,91,85,76,26.44,23.89,20,3,20,0.00
2012-12-26,32.4,29.4,26.5,29.1,26.7,23.2,95,90,76,26.47,23.98,33,10,33,0.01
2012-12-27,31.7,27.3,23.5,26.4,23.4,21.2,91,85,76,25.18,24.07,16,2,16,0.00
2012-12-28,31.2,27.6,20.3,27.6,24.5,18.1,100,88,81,24.61,23.90,12,1,12,0.00
2012-12-29,31.2,27.5,24.7,28.8,25.2,21.2,100,91,86,24.65,24.05,22,3,22,0.01
2012-12-30,26.0,22.5,17.5,21.3,18.0,14.2,89,83,74,25.18,24.24,20,4,20,0.06
2012-12-31,34.6,30.5,25.3,30.5,26.6,20.6,94,85,76,29.47,24.74,17,4,17,0.01
2013-1-1,32.1,26.6,17.0,30.1,23.4,14.6,94,88,75,29.68,25.81,11,1,11,0.00